When you browse on this site, cookies collect data to enhance your experience and personalize the content and advertising you see.
Visit our Privacy Policy to learn more. By continuing to use the site, you agree to this use of cookies and data.
  • In Portugal
  • List of Countries
  • For 7 days
  • Water Temperature
  • Satellite Maps
  • Weather Map
  • Weather Widgets
  • user-avatar
    Login

    Hourly Weather Boguszyczki

    Today, 20 June, Thursday

    Time Temperature Precipitation Wind Pressure Humidity
    00:00 +21°C° 0 mm 2 mps 749 mmHg 81%
    01:00 +21°C° 0 mm 2 mps 749 mmHg 81%
    02:00 +20°C° 0 mm 2 mps 748 mmHg 81%
    03:00 +20°C° 0 mm 2 mps 748 mmHg 82%
    04:00 +20°C° 0 mm 2 mps 748 mmHg 82%
    05:00 +21°C° 0.2 mm 2 mps 748 mmHg 81%
    06:00 +23°C° 0.2 mm 2 mps 748 mmHg 80%
    07:00 +24°C° 0.2 mm 2 mps 749 mmHg 79%
    08:00 +25°C° 0.1 mm 3 mps 749 mmHg 75%
    09:00 +27°C° 0.1 mm 3 mps 748 mmHg 71%
    10:00 +28°C° 0.1 mm 3 mps 748 mmHg 67%
    11:00 +29°C° 0.3 mm 3 mps 748 mmHg 62%
    12:00 +30°C° 0.3 mm 3 mps 748 mmHg 57%
    13:00 +31°C° 0.3 mm 3 mps 748 mmHg 52%
    14:00 +31°C° 0 mm 3 mps 748 mmHg 52%
    15:00 +31°C° 0 mm 2 mps 748 mmHg 53%
    16:00 +31°C° 0 mm 2 mps 748 mmHg 54%
    17:00 +29°C° 0.3 mm 3 mps 748 mmHg 60%
    18:00 +27°C° 0.3 mm 3 mps 748 mmHg 66%
    19:00 +25°C° 0.3 mm 4 mps 748 mmHg 73%
    20:00 +22°C° 1.2 mm 3 mps 749 mmHg 79%
    21:00 +20°C° 1.2 mm 3 mps 749 mmHg 85%
    22:00 +18°C° 1.2 mm 2 mps 749 mmHg 91%
    23:00 +18°C° 0 mm 2 mps 750 mmHg 89%

    Tomorrow, 21 June, Friday

    Time Temperature Precipitation Wind Pressure Humidity
    00:00 +19°C° 0 mm 1 mps 750 mmHg 88%
    01:00 +19°C° 0 mm 1 mps 750 mmHg 87%
    02:00 +19°C° 0 mm 1 mps 750 mmHg 88%
    03:00 +19°C° 0 mm 1 mps 750 mmHg 89%
    04:00 +18°C° 0 mm 2 mps 750 mmHg 90%
    05:00 +19°C° 0 mm 2 mps 751 mmHg 88%
    06:00 +20°C° 0 mm 2 mps 751 mmHg 86%
    07:00 +21°C° 0 mm 2 mps 752 mmHg 84%
    08:00 +23°C° 0 mm 2 mps 752 mmHg 81%
    09:00 +23°C° 0 mm 2 mps 752 mmHg 79%
    10:00 +24°C° 0 mm 2 mps 752 mmHg 76%
    11:00 +25°C° 0 mm 2 mps 752 mmHg 72%
    12:00 +26°C° 0 mm 2 mps 752 mmHg 68%
    13:00 +27°C° 0 mm 2 mps 752 mmHg 64%
    14:00 +27°C° 0.3 mm 2 mps 752 mmHg 65%
    15:00 +27°C° 0.3 mm 2 mps 752 mmHg 65%
    16:00 +27°C° 0.3 mm 3 mps 752 mmHg 66%
    17:00 +26°C° 0.7 mm 3 mps 752 mmHg 72%
    18:00 +24°C° 0.7 mm 3 mps 752 mmHg 78%
    19:00 +22°C° 0.7 mm 3 mps 752 mmHg 84%
    20:00 +21°C° 0 mm 3 mps 753 mmHg 87%
    21:00 +20°C° 0 mm 3 mps 753 mmHg 90%
    22:00 +19°C° 0 mm 3 mps 754 mmHg 93%
    23:00 +18°C° 0 mm 3 mps 754 mmHg 93%

    Day after tomorrow, 22 June, Saturday

    Time Temperature Precipitation Wind Pressure Humidity
    00:00 +17°C° 0 mm 4 mps 754 mmHg 94%
    01:00 +17°C° 0 mm 4 mps 755 mmHg 94%
    02:00 +15°C° 0 mm 4 mps 755 mmHg 94%
    03:00 +15°C° 0 mm 4 mps 755 mmHg 95%
    04:00 +14°C° 0 mm 3 mps 755 mmHg 95%
    05:00 +15°C° 0 mm 4 mps 756 mmHg 91%
    06:00 +17°C° 0 mm 4 mps 756 mmHg 86%
    07:00 +17°C° 0 mm 4 mps 757 mmHg 82%
    08:00 +19°C° 0 mm 4 mps 757 mmHg 76%
    09:00 +20°C° 0 mm 4 mps 757 mmHg 71%
    10:00 +21°C° 0 mm 4 mps 757 mmHg 65%
    11:00 +22°C° 0 mm 4 mps 757 mmHg 63%
    12:00 +22°C° 0 mm 4 mps 757 mmHg 62%
    13:00 +23°C° 0 mm 5 mps 757 mmHg 60%
    14:00 +23°C° 0 mm 5 mps 757 mmHg 61%
    15:00 +23°C° 0 mm 5 mps 756 mmHg 63%
    16:00 +23°C° 0 mm 6 mps 756 mmHg 64%
    17:00 +21°C° 0 mm 5 mps 757 mmHg 68%
    18:00 +20°C° 0 mm 5 mps 757 mmHg 71%
    19:00 +17°C° 0 mm 5 mps 757 mmHg 75%
    20:00 +16°C° 0 mm 5 mps 757 mmHg 75%
    21:00 +15°C° 0 mm 4 mps 757 mmHg 76%
    22:00 +13°C° 0 mm 4 mps 757 mmHg 76%
    23:00 +13°C° 0 mm 4 mps 757 mmHg 79%

    23 June, Sunday

    Time Temperature Precipitation Wind Pressure Humidity
    00:00 +12°C° 0 mm 4 mps 758 mmHg 81%
    01:00 +11°C° 0 mm 4 mps 758 mmHg 83%
    02:00 +11°C° 0 mm 4 mps 758 mmHg 83%
    03:00 +10°C° 0 mm 4 mps 758 mmHg 82%
    04:00 +10°C° 0 mm 4 mps 758 mmHg 81%
    05:00 +11°C° 0 mm 4 mps 758 mmHg 80%
    06:00 +12°C° 0 mm 4 mps 758 mmHg 78%
    07:00 +13°C° 0 mm 4 mps 758 mmHg 76%
    08:00 +15°C° 0 mm 4 mps 758 mmHg 74%
    09:00 +17°C° 0 mm 4 mps 758 mmHg 72%
    10:00 +19°C° 0 mm 4 mps 758 mmHg 70%
    11:00 +20°C° 0 mm 4 mps 758 mmHg 67%
    12:00 +21°C° 0 mm 4 mps 758 mmHg 65%
    13:00 +22°C° 0 mm 4 mps 758 mmHg 63%
    14:00 +21°C° 0 mm 5 mps 758 mmHg 63%
    15:00 +21°C° 0 mm 5 mps 758 mmHg 64%
    16:00 +21°C° 0 mm 5 mps 758 mmHg 65%
    17:00 +21°C° 0 mm 5 mps 758 mmHg 70%
    18:00 +20°C° 0 mm 4 mps 758 mmHg 75%
    19:00 +19°C° 0 mm 4 mps 758 mmHg 79%
    20:00 +17°C° 0 mm 4 mps 759 mmHg 83%
    21:00 +15°C° 0 mm 4 mps 759 mmHg 86%
    22:00 +14°C° 0 mm 3 mps 759 mmHg 90%
    23:00 +13°C° 0 mm 3 mps 759 mmHg 90%

    24 June, Monday

    Time Temperature Precipitation Wind Pressure Humidity
    00:00 +13°C° 0 mm 3 mps 760 mmHg 90%
    01:00 +12°C° 0 mm 3 mps 760 mmHg 90%
    02:00 +12°C° 0 mm 3 mps 760 mmHg 90%
    03:00 +11°C° 0 mm 3 mps 760 mmHg 90%
    04:00 +11°C° 0 mm 3 mps 760 mmHg 91%
    05:00 +12°C° 0 mm 3 mps 760 mmHg 86%
    06:00 +14°C° 0 mm 3 mps 760 mmHg 81%
    07:00 +17°C° 0 mm 3 mps 760 mmHg 77%
    08:00 +19°C° 0 mm 3 mps 760 mmHg 71%
    09:00 +20°C° 0 mm 3 mps 760 mmHg 66%
    10:00 +22°C° 0 mm 3 mps 760 mmHg 61%
    11:00 +24°C° 0 mm 3 mps 760 mmHg 58%
    12:00 +25°C° 0 mm 3 mps 760 mmHg 56%
    13:00 +26°C° 0 mm 3 mps 760 mmHg 54%
    14:00 +26°C° 0 mm 3 mps 760 mmHg 54%
    15:00 +26°C° 0 mm 3 mps 760 mmHg 54%
    16:00 +26°C° 0 mm 3 mps 760 mmHg 55%
    17:00 +25°C° 0 mm 3 mps 760 mmHg 62%
    18:00 +24°C° 0 mm 3 mps 760 mmHg 69%
    19:00 +21°C° 0 mm 3 mps 760 mmHg 76%
    20:00 +20°C° 0 mm 3 mps 760 mmHg 81%
    21:00 +18°C° 0 mm 3 mps 761 mmHg 86%
    22:00 +17°C° 0 mm 3 mps 761 mmHg 91%
    23:00 +16°C° 0 mm 3 mps 761 mmHg 92%

    25 June, Tuesday

    Time Temperature Precipitation Wind Pressure Humidity
    00:00 +16°C° 0 mm 3 mps 761 mmHg 92%
    01:00 +15°C° 0 mm 2 mps 761 mmHg 93%
    02:00 +15°C° 0 mm 2 mps 761 mmHg 94%
    03:00 +14°C° 0 mm 2 mps 761 mmHg 94%
    04:00 +14°C° 0 mm 2 mps 761 mmHg 94%
    05:00 +16°C° 0 mm 2 mps 762 mmHg 88%
    06:00 +17°C° 0 mm 2 mps 762 mmHg 82%
    07:00 +19°C° 0 mm 2 mps 762 mmHg 76%
    08:00 +20°C° 0 mm 2 mps 762 mmHg 71%
    09:00 +22°C° 0 mm 3 mps 762 mmHg 66%
    10:00 +24°C° 0 mm 3 mps 762 mmHg 61%
    11:00 +25°C° 0 mm 3 mps 762 mmHg 57%
    12:00 +26°C° 0 mm 3 mps 762 mmHg 53%
    13:00 +26°C° 0 mm 2 mps 762 mmHg 49%
    14:00 +26°C° 0 mm 3 mps 762 mmHg 49%
    15:00 +26°C° 0 mm 3 mps 762 mmHg 50%
    16:00 +26°C° 0 mm 3 mps 762 mmHg 51%
    17:00 +25°C° 0 mm 3 mps 762 mmHg 59%
    18:00 +22°C° 0 mm 3 mps 762 mmHg 66%
    19:00 +21°C° 0 mm 3 mps 762 mmHg 73%
    20:00 +20°C° 0 mm 3 mps 762 mmHg 78%
    21:00 +18°C° 0 mm 3 mps 762 mmHg 83%
    22:00 +16°C° 0 mm 3 mps 763 mmHg 87%
    23:00 +16°C° 0 mm 3 mps 763 mmHg 88%
    Show more